Time,TemperatureF,DewpointF,PressureIn,WindDirection,WindDirectionDegrees,WindSpeedMPH,WindSpeedGustMPH,Humidity,HourlyPrecipIn,Conditions,Clouds,dailyrainin,SoftwareType,DateUTC
2013-01-02 00:02:00,1.0,-5.0,30.56,West,278,0.0,-999.0,76,-99.99,,,-99.99,,2013-01-02 07:02:00,
2013-01-02 00:12:00,1.0,-5.0,30.56,West,278,0.0,-999.0,76,-99.99,,,-99.99,,2013-01-02 07:12:00,
2013-01-02 00:22:00,2.0,-3.0,30.55,West,277,0.0,-999.0,78,-99.99,,,-99.99,,2013-01-02 07:22:00,
2013-01-02 00:32:00,3.0,-3.0,30.55,West,277,0.0,-999.0,77,-99.99,,,-99.99,,2013-01-02 07:32:00,
2013-01-02 00:42:00,3.0,-3.0,30.55,West,277,0.0,-999.0,77,-99.99,,,-99.99,,2013-01-02 07:42:00,
2013-01-02 00:52:00,2.0,-4.0,30.55,West,277,0.0,-999.0,74,-99.99,,,-99.99,,2013-01-02 07:52:00,
2013-01-02 01:02:00,2.0,-4.0,30.56,West,278,0.0,-999.0,77,-99.99,,,-99.99,,2013-01-02 08:02:00,
2013-01-02 01:11:00,2.0,-4.0,30.56,West,278,0.0,-999.0,77,-99.99,,,-99.99,,2013-01-02 08:11:00,
2013-01-02 01:22:00,2.0,-4.0,30.56,West,278,0.0,-999.0,76,-99.99,,,-99.99,,2013-01-02 08:22:00,
2013-01-02 01:32:00,2.0,-4.0,30.56,West,278,0.0,-999.0,74,-99.99,,,-99.99,,2013-01-02 08:32:00,
2013-01-02 01:42:00,2.0,-4.0,30.56,West,278,0.0,-999.0,74,-99.99,,,-99.99,,2013-01-02 08:42:00,
2013-01-02 01:52:00,1.0,-5.0,30.57,West,277,0.0,-999.0,75,-99.99,,,-99.99,,2013-01-02 08:52:00,
2013-01-02 02:02:00,1.0,-4.0,30.58,West,278,0.0,-999.0,78,-99.99,,,-99.99,,2013-01-02 09:02:00,
2013-01-02 02:12:00,1.0,-4.0,30.58,West,278,0.0,-999.0,78,-99.99,,,-99.99,,2013-01-02 09:12:00,
2013-01-02 02:22:00,0.0,-6.0,30.58,West,278,0.0,-999.0,74,-99.99,,,-99.99,,2013-01-02 09:22:00,
2013-01-02 02:32:00,2.0,-4.0,30.58,West,278,0.0,-999.0,77,-99.99,,,-99.99,,2013-01-02 09:32:00,
2013-01-02 02:42:00,2.0,-4.0,30.58,West,278,0.0,-999.0,77,-99.99,,,-99.99,,2013-01-02 09:42:00,
2013-01-02 02:52:00,2.0,-4.0,30.58,West,278,0.0,-999.0,74,-99.99,,,-99.99,,2013-01-02 09:52:00,
2013-01-02 03:02:00,0.0,-6.0,30.58,West,277,0.0,-999.0,74,-99.99,,,-99.99,,2013-01-02 10:02:00,
2013-01-02 03:12:00,0.0,-6.0,30.58,West,278,0.0,-999.0,76,-99.99,,,-99.99,,2013-01-02 10:12:00,
2013-01-02 03:22:00,0.0,-6.0,30.58,West,278,0.0,-999.0,76,-99.99,,,-99.99,,2013-01-02 10:22:00,
2013-01-02 03:32:00,0.0,-6.0,30.58,West,277,0.0,-999.0,76,-99.99,,,-99.99,,2013-01-02 10:32:00,
2013-01-02 03:42:00,0.0,-6.0,30.58,West,277,0.0,-999.0,76,-99.99,,,-99.99,,2013-01-02 10:42:00,
2013-01-02 03:52:00,0.0,-6.0,30.58,West,278,0.0,-999.0,76,-99.99,,,-99.99,,2013-01-02 10:52:00,
2013-01-02 04:02:00,0.0,-5.0,30.57,West,278,0.0,-999.0,79,-99.99,,,-99.99,,2013-01-02 11:02:00,
2013-01-02 04:11:00,0.0,-5.0,30.57,West,278,0.0,-999.0,79,-99.99,,,-99.99,,2013-01-02 11:11:00,
2013-01-02 04:22:00,0.0,-6.0,30.57,West,277,0.0,-999.0,75,-99.99,,,-99.99,,2013-01-02 11:22:00,
2013-01-02 04:32:00,0.0,-6.0,30.57,West,278,0.0,-999.0,76,-99.99,,,-99.99,,2013-01-02 11:32:00,
2013-01-02 04:42:00,0.0,-6.0,30.57,West,278,0.0,-999.0,76,-99.99,,,-99.99,,2013-01-02 11:42:00,
2013-01-02 04:52:00,0.0,-5.0,30.56,West,277,0.0,-999.0,78,-99.99,,,-99.99,,2013-01-02 11:52:00,
2013-01-02 05:02:00,0.0,-6.0,30.56,West,278,0.0,-999.0,76,-99.99,,,-99.99,,2013-01-02 12:02:00,
2013-01-02 05:12:00,0.0,-6.0,30.56,West,278,0.0,-999.0,76,-99.99,,,-99.99,,2013-01-02 12:12:00,
2013-01-02 05:22:00,0.0,-5.0,30.56,West,278,0.0,-999.0,77,-99.99,,,-99.99,,2013-01-02 12:22:00,
2013-01-02 05:32:00,0.0,-5.0,30.55,West,277,0.0,-999.0,77,-99.99,,,-99.99,,2013-01-02 12:32:00,
2013-01-02 05:42:00,0.0,-5.0,30.55,West,277,0.0,-999.0,77,-99.99,,,-99.99,,2013-01-02 12:42:00,
2013-01-02 05:53:00,0.0,-5.0,30.55,West,278,0.0,-999.0,77,-99.99,,,-99.99,,2013-01-02 12:53:00,
2013-01-02 06:02:00,0.0,-6.0,30.55,West,278,0.0,-999.0,74,-99.99,,,-99.99,,2013-01-02 13:02:00,
2013-01-02 06:12:00,0.0,-6.0,30.55,West,278,0.0,-999.0,74,-99.99,,,-99.99,,2013-01-02 13:12:00,
2013-01-02 06:22:00,0.0,-5.0,30.55,West,278,0.0,-999.0,77,-99.99,,,-99.99,,2013-01-02 13:22:00,
2013-01-02 06:32:00,0.0,-6.0,30.54,West,278,0.0,-999.0,76,-99.99,,,-99.99,,2013-01-02 13:32:00,
2013-01-02 06:42:00,0.0,-6.0,30.54,West,278,0.0,-999.0,76,-99.99,,,-99.99,,2013-01-02 13:42:00,
2013-01-02 06:52:00,0.0,-5.0,30.54,West,278,0.0,-999.0,77,-99.99,,,-99.99,,2013-01-02 13:52:00,
2013-01-02 07:02:00,0.0,-6.0,30.54,West,277,0.0,-999.0,76,-99.99,,,-99.99,,2013-01-02 14:02:00,
2013-01-02 07:12:00,0.0,-6.0,30.54,West,277,0.0,-999.0,76,-99.99,,,-99.99,,2013-01-02 14:12:00,
2013-01-02 07:22:00,0.0,-6.0,30.55,West,278,0.0,-999.0,76,-99.99,,,-99.99,,2013-01-02 14:22:00,
2013-01-02 07:32:00,0.0,-6.0,30.55,West,277,0.0,-999.0,76,-99.99,,,-99.99,,2013-01-02 14:32:00,
2013-01-02 07:42:00,0.0,-6.0,30.55,West,277,0.0,-999.0,76,-99.99,,,-99.99,,2013-01-02 14:42:00,
2013-01-02 07:53:00,0.0,-6.0,30.55,West,278,0.0,-999.0,76,-99.99,,,-99.99,,2013-01-02 14:53:00,
2013-01-02 08:02:00,0.0,-6.0,30.55,West,278,0.0,-999.0,75,-99.99,,,-99.99,,2013-01-02 15:02:00,
2013-01-02 08:12:00,0.0,-6.0,30.55,West,278,0.0,-999.0,75,-99.99,,,-99.99,,2013-01-02 15:12:00,
2013-01-02 08:22:00,1.0,-4.0,30.55,West,277,0.0,-999.0,77,-99.99,,,-99.99,,2013-01-02 15:22:00,
2013-01-02 08:32:00,1.0,-5.0,30.55,West,278,0.0,-999.0,76,-99.99,,,-99.99,,2013-01-02 15:32:00,
2013-01-02 08:42:00,1.0,-5.0,30.55,West,278,0.0,-999.0,76,-99.99,,,-99.99,,2013-01-02 15:42:00,
2013-01-02 08:53:00,2.0,-4.0,30.56,West,277,0.0,-999.0,77,-99.99,,,-99.99,,2013-01-02 15:53:00,
2013-01-02 09:02:00,4.0,-2.0,30.57,West,278,0.0,-999.0,75,-99.99,,,-99.99,,2013-01-02 16:02:00,
2013-01-02 09:11:00,4.0,-2.0,30.57,West,278,0.0,-999.0,75,-99.99,,,-99.99,,2013-01-02 16:11:00,
2013-01-02 09:22:00,5.0,-1.0,30.57,West,278,0.0,-999.0,74,-99.99,,,-99.99,,2013-01-02 16:22:00,
2013-01-02 09:32:00,6.0,-2.0,30.57,West,277,0.0,-999.0,70,-99.99,,,-99.99,,2013-01-02 16:32:00,
2013-01-02 09:42:00,6.0,-2.0,30.57,West,277,0.0,-999.0,70,-99.99,,,-99.99,,2013-01-02 16:42:00,
2013-01-02 09:53:00,6.0,-2.0,30.57,West,277,0.0,-999.0,68,-99.99,,,-99.99,,2013-01-02 16:53:00,
2013-01-02 10:02:00,7.0,-2.0,30.56,West,278,0.0,-999.0,67,-99.99,,,-99.99,,2013-01-02 17:02:00,
2013-01-02 10:12:00,7.0,-2.0,30.56,West,278,0.0,-999.0,67,-99.99,,,-99.99,,2013-01-02 17:12:00,
2013-01-02 10:22:00,9.0,0.0,30.57,West,278,0.0,-999.0,66,-99.99,,,-99.99,,2013-01-02 17:22:00,
2013-01-02 10:33:00,11.0,1.0,30.57,West,278,1.0,-999.0,63,-99.99,,,-99.99,,2013-01-02 17:33:00,
2013-01-02 10:42:00,11.0,1.0,30.57,West,278,1.0,-999.0,63,-99.99,,,-99.99,,2013-01-02 17:42:00,
2013-01-02 10:53:00,12.0,0.0,30.56,West,277,1.0,-999.0,58,-99.99,,,-99.99,,2013-01-02 17:53:00,
2013-01-02 11:02:00,14.0,2.0,30.56,West,277,0.0,-999.0,58,-99.99,,,-99.99,,2013-01-02 18:02:00,
2013-01-02 11:12:00,14.0,2.0,30.56,West,277,0.0,-999.0,58,-99.99,,,-99.99,,2013-01-02 18:12:00,
2013-01-02 11:22:00,16.0,3.0,30.56,SSW,194,1.0,-999.0,55,-99.99,,,-99.99,,2013-01-02 18:22:00,
2013-01-02 11:32:00,18.0,5.0,30.55,SSW,192,1.0,-999.0,55,-99.99,,,-99.99,,2013-01-02 18:32:00,
2013-01-02 11:42:00,18.0,5.0,30.55,SSW,192,1.0,-999.0,55,-99.99,,,-99.99,,2013-01-02 18:42:00,
2013-01-02 11:53:00,18.0,6.0,30.53,West,261,1.0,-999.0,58,-99.99,,,-99.99,,2013-01-02 18:53:00,
2013-01-02 12:02:00,20.0,7.0,30.52,WSW,240,1.0,-999.0,57,-99.99,,,-99.99,,2013-01-02 19:02:00,
2013-01-02 12:12:00,20.0,7.0,30.52,WSW,240,1.0,-999.0,57,-99.99,,,-99.99,,2013-01-02 19:12:00,
2013-01-02 12:22:00,19.0,6.0,30.51,West,267,2.0,-999.0,56,-99.99,,,-99.99,,2013-01-02 19:22:00,
2013-01-02 12:32:00,19.0,7.0,30.51,WSW,240,2.0,-999.0,58,-99.99,,,-99.99,,2013-01-02 19:32:00,
2013-01-02 12:42:00,19.0,7.0,30.51,WSW,240,2.0,-999.0,58,-99.99,,,-99.99,,2013-01-02 19:42:00,
2013-01-02 12:52:00,19.0,7.0,30.49,West,261,4.0,-999.0,58,-99.99,,,-99.99,,2013-01-02 19:52:00,
2013-01-02 13:02:00,19.0,7.0,30.49,West,279,4.0,-999.0,59,-99.99,,,-99.99,,2013-01-02 20:02:00,
2013-01-02 13:11:00,19.0,7.0,30.49,West,279,4.0,-999.0,59,-99.99,,,-99.99,,2013-01-02 20:11:00,
2013-01-02 13:22:00,19.0,7.0,30.49,West,278,5.0,-999.0,59,-99.99,,,-99.99,,2013-01-02 20:22:00,
2013-01-02 13:32:00,19.0,7.0,30.48,WSW,237,5.0,-999.0,58,-99.99,,,-99.99,,2013-01-02 20:32:00,
2013-01-02 13:42:00,19.0,7.0,30.48,WSW,237,5.0,-999.0,58,-99.99,,,-99.99,,2013-01-02 20:42:00,
2013-01-02 13:53:00,19.0,7.0,30.48,West,279,5.0,-999.0,58,-99.99,,,-99.99,,2013-01-02 20:53:00,
2013-01-02 14:02:00,19.0,6.0,30.47,West,264,5.0,-999.0,57,-99.99,,,-99.99,,2013-01-02 21:02:00,
2013-01-02 14:22:00,20.0,7.0,30.47,West,273,4.0,-999.0,57,-99.99,,,-99.99,,2013-01-02 21:22:00,
2013-01-02 14:32:00,19.0,6.0,30.46,West,279,5.0,-999.0,56,-99.99,,,-99.99,,2013-01-02 21:32:00,
2013-01-02 14:42:00,19.0,6.0,30.46,West,279,5.0,-999.0,56,-99.99,,,-99.99,,2013-01-02 21:42:00,
2013-01-02 14:53:00,19.0,6.0,30.46,West,264,5.0,-999.0,57,-99.99,,,-99.99,,2013-01-02 21:53:00,
2013-01-02 15:02:00,19.0,7.0,30.47,West,260,6.0,-999.0,58,-99.99,,,-99.99,,2013-01-02 22:02:00,
2013-01-02 15:12:00,19.0,7.0,30.47,West,260,6.0,-999.0,58,-99.99,,,-99.99,,2013-01-02 22:12:00,
2013-01-02 15:22:00,19.0,7.0,30.47,WSW,257,6.0,-999.0,59,-99.99,,,-99.99,,2013-01-02 22:22:00,
2013-01-02 15:32:00,18.0,8.0,30.47,NW,313,6.0,-999.0,63,-99.99,,,-99.99,,2013-01-02 22:32:00,
2013-01-02 15:52:00,18.0,8.0,30.48,West,279,6.0,-999.0,63,-99.99,,,-99.99,,2013-01-02 22:52:00,
2013-01-02 16:02:00,19.0,9.0,30.48,West,279,5.0,-999.0,63,-99.99,,,-99.99,,2013-01-02 23:02:00,
2013-01-02 16:12:00,18.0,8.0,30.48,West,279,4.0,-999.0,64,-99.99,,,-99.99,,2013-01-02 23:12:00,
2013-01-02 16:22:00,18.0,8.0,30.48,West,279,4.0,-999.0,64,-99.99,,,-99.99,,2013-01-02 23:22:00,
2013-01-02 16:32:00,16.0,7.0,30.48,WNW,283,3.0,-999.0,67,-99.99,,,-99.99,,2013-01-02 23:32:00,
2013-01-02 16:52:00,15.0,6.0,30.48,WNW,283,1.0,-999.0,66,-99.99,,,-99.99,,2013-01-02 23:52:00,
2013-01-02 17:02:00,14.0,6.0,30.49,WNW,283,0.0,-999.0,69,-99.99,,,-99.99,,2013-01-03 00:02:00,
2013-01-02 17:22:00,14.0,6.0,30.50,WNW,283,0.0,-999.0,69,-99.99,,,-99.99,,2013-01-03 00:22:00,
2013-01-02 17:35:00,12.0,3.0,30.50,WNW,283,0.0,-999.0,66,-99.99,,,-99.99,,2013-01-03 00:35:00,
2013-01-02 17:52:00,10.0,3.0,30.50,WNW,283,0.0,-999.0,72,-99.99,,,-99.99,,2013-01-03 00:52:00,
2013-01-02 18:02:00,10.0,3.0,30.50,WNW,283,0.0,-999.0,73,-99.99,,,-99.99,,2013-01-03 01:02:00,
2013-01-02 18:22:00,10.0,4.0,30.51,WNW,283,0.0,-999.0,75,-99.99,,,-99.99,,2013-01-03 01:22:00,
2013-01-02 18:32:00,10.0,3.0,30.51,WNW,283,0.0,-999.0,72,-99.99,,,-99.99,,2013-01-03 01:32:00,
2013-01-02 18:42:00,10.0,3.0,30.51,WNW,283,0.0,-999.0,72,-99.99,,,-99.99,,2013-01-03 01:42:00,
2013-01-02 18:52:00,9.0,3.0,30.52,WNW,283,0.0,-999.0,75,-99.99,,,-99.99,,2013-01-03 01:52:00,
2013-01-02 19:01:00,9.0,3.0,30.52,WNW,283,0.0,-999.0,75,-99.99,,,-99.99,,2013-01-03 02:01:00,
2013-01-02 19:12:00,9.0,3.0,30.52,WNW,283,0.0,-999.0,75,-99.99,,,-99.99,,2013-01-03 02:12:00,
2013-01-02 19:22:00,8.0,2.0,30.52,WNW,283,0.0,-999.0,75,-99.99,,,-99.99,,2013-01-03 02:22:00,
2013-01-02 19:32:00,9.0,4.0,30.52,WNW,283,0.0,-999.0,78,-99.99,,,-99.99,,2013-01-03 02:32:00,
2013-01-02 19:42:00,9.0,4.0,30.52,WNW,283,0.0,-999.0,78,-99.99,,,-99.99,,2013-01-03 02:42:00,
2013-01-02 19:52:00,9.0,4.0,30.52,WNW,283,0.0,-999.0,78,-99.99,,,-99.99,,2013-01-03 02:52:00,
2013-01-02 20:02:00,9.0,3.0,30.53,WNW,283,0.0,-999.0,77,-99.99,,,-99.99,,2013-01-03 03:02:00,
2013-01-02 20:12:00,8.0,2.0,30.54,WNW,283,0.0,-999.0,77,-99.99,,,-99.99,,2013-01-03 03:12:00,
2013-01-02 20:22:00,8.0,2.0,30.54,WNW,283,0.0,-999.0,77,-99.99,,,-99.99,,2013-01-03 03:22:00,
2013-01-02 20:32:00,8.0,2.0,30.54,WNW,283,0.0,-999.0,77,-99.99,,,-99.99,,2013-01-03 03:32:00,
2013-01-02 20:46:00,8.0,2.0,30.54,WNW,283,0.0,-999.0,77,-99.99,,,-99.99,,2013-01-03 03:46:00,
2013-01-02 20:52:00,7.0,2.0,30.54,WNW,283,0.0,-999.0,78,-99.99,,,-99.99,,2013-01-03 03:52:00,
2013-01-02 21:02:00,6.0,1.0,30.54,WNW,283,0.0,-999.0,79,-99.99,,,-99.99,,2013-01-03 04:02:00,
2013-01-02 21:12:00,6.0,1.0,30.54,WNW,283,0.0,-999.0,79,-99.99,,,-99.99,,2013-01-03 04:12:00,
2013-01-02 21:22:00,6.0,1.0,30.54,WNW,283,0.0,-999.0,80,-99.99,,,-99.99,,2013-01-03 04:22:00,
2013-01-02 21:32:00,5.0,0.0,30.55,WNW,283,0.0,-999.0,79,-99.99,,,-99.99,,2013-01-03 04:32:00,
2013-01-02 21:42:00,5.0,0.0,30.55,WNW,283,0.0,-999.0,79,-99.99,,,-99.99,,2013-01-03 04:42:00,
2013-01-02 21:52:00,6.0,1.0,30.55,WNW,283,0.0,-999.0,79,-99.99,,,-99.99,,2013-01-03 04:52:00,
2013-01-02 22:03:00,6.0,1.0,30.56,WNW,283,0.0,-999.0,79,-99.99,,,-99.99,,2013-01-03 05:03:00,
2013-01-02 22:12:00,6.0,1.0,30.56,WNW,283,0.0,-999.0,79,-99.99,,,-99.99,,2013-01-03 05:12:00,
2013-01-02 22:22:00,6.0,1.0,30.56,WNW,283,0.0,-999.0,79,-99.99,,,-99.99,,2013-01-03 05:22:00,
2013-01-02 22:33:00,6.0,1.0,30.56,WNW,283,0.0,-999.0,79,-99.99,,,-99.99,,2013-01-03 05:33:00,
2013-01-02 22:42:00,6.0,1.0,30.56,WNW,283,0.0,-999.0,79,-99.99,,,-99.99,,2013-01-03 05:42:00,
2013-01-02 22:53:00,5.0,0.0,30.58,WNW,283,0.0,-999.0,79,-99.99,,,-99.99,,2013-01-03 05:53:00,
2013-01-02 23:02:00,4.0,-1.0,30.58,WNW,283,0.0,-999.0,80,-99.99,,,-99.99,,2013-01-03 06:02:00,
2013-01-02 23:12:00,4.0,-1.0,30.58,WNW,283,0.0,-999.0,80,-99.99,,,-99.99,,2013-01-03 06:12:00,
2013-01-02 23:22:00,4.0,-1.0,30.59,WNW,283,0.0,-999.0,80,-99.99,,,-99.99,,2013-01-03 06:22:00,
2013-01-02 23:32:00,4.0,-1.0,30.59,WNW,283,0.0,-999.0,80,-99.99,,,-99.99,,2013-01-03 06:32:00,
2013-01-02 23:42:00,4.0,-1.0,30.59,WNW,283,0.0,-999.0,80,-99.99,,,-99.99,,2013-01-03 06:42:00,
2013-01-02 23:52:00,3.0,-2.0,30.59,WNW,283,0.0,-999.0,78,-99.99,,,-99.99,,2013-01-03 06:52:00,